TimeEST,TemperatureF,Dew PointF,Humidity,Sea Level PressureIn,VisibilityMPH,Wind Direction,Wind SpeedMPH,Gust SpeedMPH,PrecipitationIn,Events,Conditions,WindDirDegrees,DateUTC
12:51 AM,46.0,42.1,86,30.24,10.0,Calm,Calm,-,N/A,,Clear,0,2011-11-08 05:51:00
1:51 AM,42.8,41.0,93,30.23,9.0,Calm,Calm,-,N/A,,Clear,0,2011-11-08 06:51:00
2:51 AM,42.8,39.2,87,30.22,8.0,Calm,Calm,-,N/A,,Clear,0,2011-11-08 07:51:00
3:51 AM,41.0,39.0,93,30.22,7.0,East,3.5,-,N/A,,Clear,100,2011-11-08 08:51:00
4:51 AM,39.9,39.0,97,30.23,6.0,ESE,3.5,-,N/A,,Clear,110,2011-11-08 09:51:00
5:51 AM,39.9,39.0,97,30.23,10.0,Calm,Calm,-,N/A,,Clear,0,2011-11-08 10:51:00
6:51 AM,41.0,39.0,93,30.24,10.0,Calm,Calm,-,N/A,,Clear,0,2011-11-08 11:51:00
7:51 AM,41.0,39.9,96,30.25,8.0,East,3.5,-,N/A,,Clear,100,2011-11-08 12:51:00
8:51 AM,46.0,43.0,89,30.24,10.0,Calm,Calm,-,N/A,,Clear,0,2011-11-08 13:51:00
9:51 AM,55.0,46.0,72,30.23,10.0,Calm,Calm,-,N/A,,Clear,0,2011-11-08 14:51:00
10:51 AM,62.1,45.0,53,30.23,10.0,SSW,10.4,-,N/A,,Clear,200,2011-11-08 15:51:00
11:51 AM,66.9,48.0,51,30.20,10.0,South,5.8,-,N/A,,Clear,180,2011-11-08 16:51:00
12:51 PM,69.1,46.9,45,30.17,10.0,West,9.2,-,N/A,,Clear,260,2011-11-08 17:51:00
1:51 PM,70.0,46.9,44,30.14,10.0,South,9.2,-,N/A,,Clear,180,2011-11-08 18:51:00
2:51 PM,70.0,46.0,42,30.13,10.0,South,6.9,-,N/A,,Clear,180,2011-11-08 19:51:00
3:51 PM,70.0,46.0,42,30.12,10.0,South,6.9,-,N/A,,Clear,170,2011-11-08 20:51:00
4:51 PM,69.1,45.0,42,30.11,10.0,Calm,Calm,-,N/A,,Clear,0,2011-11-08 21:51:00
5:51 PM,66.9,44.1,44,30.11,10.0,Calm,Calm,-,N/A,,Clear,0,2011-11-08 22:51:00
6:51 PM,61.0,44.1,54,30.12,10.0,East,3.5,-,N/A,,Clear,100,2011-11-08 23:51:00
7:51 PM,57.9,45.0,62,30.13,10.0,East,3.5,-,N/A,,Clear,100,2011-11-09 00:51:00
8:51 PM,55.0,45.0,69,30.10,10.0,East,4.6,-,N/A,,Clear,100,2011-11-09 01:51:00
9:51 PM,53.1,44.1,71,30.09,10.0,East,3.5,-,N/A,,Clear,100,2011-11-09 02:51:00
10:51 PM,52.0,45.0,77,30.09,10.0,South,3.5,-,N/A,,Clear,190,2011-11-09 03:51:00
11:51 PM,48.9,44.1,83,30.08,10.0,Calm,Calm,-,N/A,,Clear,0,2011-11-09 04:51:00